• En España
  • Lista de países
  • Para 7 días
  • Temperatura del agua
  • Mapa Satelital
  • El tiempo en el mapa
  • Informadores
  • user-avatar
    Iniciar sesión

    Tiempo cada hora Sobreda

    Hoy, 25 Noviembre, Sábado

    Tiempo Temperatura Precipitaciones Viento Presión Humedad
    00:00 +15°C° 0 mm 2 mps 757 mmHg 73%
    01:00 +15°C° 0 mm 2 mps 757 mmHg 73%
    02:00 +15°C° 0 mm 1 mps 757 mmHg 73%
    03:00 +15°C° 0 mm 2 mps 757 mmHg 73%
    04:00 +15°C° 0 mm 2 mps 757 mmHg 72%
    05:00 +15°C° 0 mm 2 mps 757 mmHg 72%
    06:00 +16°C° 0 mm 2 mps 757 mmHg 71%
    07:00 +16°C° 0 mm 1 mps 757 mmHg 71%
    08:00 +16°C° 0 mm 1 mps 758 mmHg 71%
    09:00 +18°C° 0,1 mm 1 mps 758 mmHg 70%
    10:00 +19°C° 0,1 mm 1 mps 758 mmHg 69%
    11:00 +20°C° 0,1 mm 1 mps 759 mmHg 68%
    12:00 +20°C° 0 mm 1 mps 759 mmHg 68%
    13:00 +21°C° 0 mm 1 mps 758 mmHg 68%
    14:00 +21°C° 0 mm 1 mps 758 mmHg 68%
    15:00 +20°C° 0 mm 1 mps 758 mmHg 73%
    16:00 +19°C° 0 mm 1 mps 758 mmHg 77%
    17:00 +18°C° 0 mm 1 mps 759 mmHg 82%
    18:00 +18°C° 0 mm 1 mps 759 mmHg 84%
    19:00 +16°C° 0 mm 1 mps 759 mmHg 87%
    20:00 +15°C° 0 mm 1 mps 760 mmHg 90%
    21:00 +15°C° 0 mm 1 mps 760 mmHg 89%
    22:00 +15°C° 0 mm 1 mps 760 mmHg 89%
    23:00 +15°C° 0 mm 1 mps 760 mmHg 89%

    Mañana, 26 Noviembre, Domingo

    Tiempo Temperatura Precipitaciones Viento Presión Humedad
    00:00 +15°C° 0 mm 2 mps 760 mmHg 89%
    01:00 +15°C° 0 mm 2 mps 761 mmHg 89%
    02:00 +15°C° 0 mm 2 mps 761 mmHg 89%
    03:00 +15°C° 0 mm 2 mps 761 mmHg 88%
    04:00 +14°C° 0 mm 2 mps 761 mmHg 88%
    05:00 +13°C° 0 mm 3 mps 761 mmHg 87%
    06:00 +14°C° 0 mm 3 mps 761 mmHg 84%
    07:00 +14°C° 0 mm 3 mps 762 mmHg 80%
    08:00 +14°C° 0 mm 4 mps 762 mmHg 77%
    09:00 +17°C° 0 mm 4 mps 762 mmHg 71%
    10:00 +18°C° 0 mm 4 mps 762 mmHg 66%
    11:00 +19°C° 0 mm 3 mps 763 mmHg 60%
    12:00 +20°C° 0 mm 3 mps 762 mmHg 58%
    13:00 +20°C° 0 mm 3 mps 762 mmHg 56%
    14:00 +21°C° 0 mm 3 mps 761 mmHg 54%
    15:00 +20°C° 0 mm 3 mps 762 mmHg 57%
    16:00 +18°C° 0 mm 2 mps 762 mmHg 60%
    17:00 +17°C° 0 mm 2 mps 762 mmHg 63%
    18:00 +17°C° 0 mm 2 mps 762 mmHg 61%
    19:00 +16°C° 0 mm 3 mps 762 mmHg 60%
    20:00 +16°C° 0 mm 3 mps 762 mmHg 58%
    21:00 +14°C° 0 mm 4 mps 762 mmHg 57%
    22:00 +14°C° 0 mm 4 mps 762 mmHg 56%
    23:00 +14°C° 0 mm 4 mps 762 mmHg 56%

    Pasado mañana, 27 Noviembre, Lunes

    Tiempo Temperatura Precipitaciones Viento Presión Humedad
    00:00 +14°C° 0 mm 4 mps 762 mmHg 55%
    01:00 +13°C° 0 mm 4 mps 762 mmHg 54%
    02:00 +13°C° 0 mm 4 mps 762 mmHg 53%
    03:00 +13°C° 0,3 mm 4 mps 762 mmHg 56%
    04:00 +12°C° 0,3 mm 4 mps 762 mmHg 59%
    05:00 +12°C° 0,3 mm 4 mps 762 mmHg 61%
    06:00 +12°C° 0 mm 4 mps 762 mmHg 62%
    07:00 +12°C° 0 mm 4 mps 762 mmHg 62%
    08:00 +13°C° 0 mm 4 mps 762 mmHg 63%
    09:00 +14°C° 0 mm 4 mps 762 mmHg 61%
    10:00 +15°C° 0 mm 4 mps 762 mmHg 60%
    11:00 +17°C° 0 mm 4 mps 762 mmHg 58%
    12:00 +18°C° 0 mm 4 mps 761 mmHg 59%
    13:00 +18°C° 0 mm 3 mps 761 mmHg 61%
    14:00 +19°C° 0 mm 3 mps 760 mmHg 62%
    15:00 +18°C° 0 mm 3 mps 760 mmHg 64%
    16:00 +17°C° 0 mm 3 mps 760 mmHg 67%
    17:00 +16°C° 0 mm 3 mps 759 mmHg 69%
    18:00 +16°C° 0,1 mm 3 mps 759 mmHg 69%
    19:00 +16°C° 0,1 mm 3 mps 760 mmHg 69%
    20:00 +16°C° 0,1 mm 3 mps 760 mmHg 68%
    21:00 +16°C° 0 mm 3 mps 759 mmHg 68%
    22:00 +15°C° 0 mm 4 mps 759 mmHg 68%
    23:00 +15°C° 0 mm 4 mps 759 mmHg 68%

    28 Noviembre, Martes

    Tiempo Temperatura Precipitaciones Viento Presión Humedad
    00:00 +15°C° 0 mm 4 mps 758 mmHg 68%
    01:00 +14°C° 0 mm 4 mps 758 mmHg 69%
    02:00 +14°C° 0 mm 5 mps 757 mmHg 69%
    03:00 +14°C° 0,1 mm 5 mps 756 mmHg 71%
    04:00 +14°C° 0,1 mm 5 mps 756 mmHg 74%
    05:00 +14°C° 0,1 mm 5 mps 756 mmHg 76%
    06:00 +14°C° 0,3 mm 5 mps 755 mmHg 77%
    07:00 +14°C° 0,3 mm 5 mps 755 mmHg 77%
    08:00 +15°C° 0,3 mm 5 mps 755 mmHg 78%
    09:00 +16°C° 0,6 mm 6 mps 754 mmHg 77%
    10:00 +17°C° 0,6 mm 6 mps 754 mmHg 76%
    11:00 +17°C° 0,6 mm 6 mps 754 mmHg 75%
    12:00 +17°C° 1,5 mm 6 mps 753 mmHg 78%
    13:00 +17°C° 1,5 mm 5 mps 752 mmHg 82%
    14:00 +17°C° 1,5 mm 5 mps 751 mmHg 85%
    15:00 +17°C° 1 mm 5 mps 751 mmHg 88%
    16:00 +17°C° 1 mm 4 mps 750 mmHg 90%
    17:00 +17°C° 1 mm 4 mps 750 mmHg 93%
    18:00 +17°C° 0,5 mm 4 mps 750 mmHg 93%
    19:00 +17°C° 0,5 mm 4 mps 750 mmHg 94%
    20:00 +17°C° 0,5 mm 4 mps 749 mmHg 94%
    21:00 +17°C° 1 mm 4 mps 749 mmHg 93%
    22:00 +17°C° 1 mm 4 mps 748 mmHg 93%
    23:00 +17°C° 1 mm 4 mps 748 mmHg 92%

    29 Noviembre, Miércoles

    Tiempo Temperatura Precipitaciones Viento Presión Humedad
    00:00 +17°C° 0,4 mm 4 mps 747 mmHg 93%
    01:00 +15°C° 0,4 mm 4 mps 747 mmHg 93%
    02:00 +15°C° 0,4 mm 4 mps 746 mmHg 93%
    03:00 +15°C° 0,3 mm 4 mps 746 mmHg 94%
    04:00 +15°C° 0,3 mm 5 mps 746 mmHg 95%
    05:00 +15°C° 0,3 mm 5 mps 746 mmHg 95%
    06:00 +15°C° 0,1 mm 5 mps 746 mmHg 93%
    07:00 +15°C° 0,1 mm 6 mps 747 mmHg 91%
    08:00 +15°C° 0,1 mm 6 mps 747 mmHg 89%
    09:00 +15°C° 0 mm 6 mps 747 mmHg 84%
    10:00 +15°C° 0 mm 6 mps 747 mmHg 79%
    11:00 +16°C° 0 mm 6 mps 748 mmHg 74%
    12:00 +16°C° 0 mm 6 mps 747 mmHg 71%
    13:00 +16°C° 0 mm 7 mps 747 mmHg 67%
    14:00 +17°C° 0 mm 7 mps 747 mmHg 64%
    15:00 +15°C° 0 mm 6 mps 748 mmHg 67%
    16:00 +14°C° 0 mm 6 mps 748 mmHg 69%
    17:00 +13°C° 0 mm 6 mps 749 mmHg 72%
    18:00 +11°C° 0 mm 6 mps 749 mmHg 71%
    19:00 +11°C° 0 mm 6 mps 750 mmHg 70%
    20:00 +10°C° 0 mm 5 mps 750 mmHg 70%
    21:00 +10°C° 0 mm 5 mps 751 mmHg 70%
    22:00 +9°C° 0 mm 5 mps 751 mmHg 71%
    23:00 +9°C° 0 mm 5 mps 751 mmHg 71%

    30 Noviembre, Jueves

    Tiempo Temperatura Precipitaciones Viento Presión Humedad
    00:00 +8°C° 0 mm 5 mps 751 mmHg 70%
    01:00 +8°C° 0 mm 5 mps 751 mmHg 69%
    02:00 +7°C° 0 mm 5 mps 752 mmHg 68%
    03:00 +7°C° 0 mm 4 mps 752 mmHg 68%
    04:00 +6°C° 0 mm 4 mps 752 mmHg 68%
    05:00 +6°C° 0 mm 4 mps 753 mmHg 67%
    06:00 +6°C° 0 mm 4 mps 753 mmHg 64%
    07:00 +7°C° 0 mm 4 mps 754 mmHg 61%
    08:00 +7°C° 0 mm 4 mps 755 mmHg 58%
    09:00 +10°C° 0 mm 4 mps 755 mmHg 52%
    10:00 +12°C° 0 mm 4 mps 755 mmHg 45%
    11:00 +13°C° 0 mm 4 mps 756 mmHg 39%
    12:00 +14°C° 0 mm 4 mps 756 mmHg 36%
    13:00 +14°C° 0 mm 4 mps 756 mmHg 33%
    14:00 +14°C° 0 mm 5 mps 756 mmHg 30%
    15:00 +13°C° 0 mm 5 mps 756 mmHg 33%
    16:00 +10°C° 0 mm 5 mps 757 mmHg 37%
    17:00 +10°C° 0 mm 4 mps 757 mmHg 41%
    18:00 +8°C° 0 mm 4 mps 758 mmHg 45%
    19:00 +8°C° 0 mm 4 mps 758 mmHg 49%
    20:00 +7°C° 0 mm 4 mps 759 mmHg 53%
    21:00 +6°C° 0 mm 4 mps 759 mmHg 55%
    22:00 +6°C° 0 mm 4 mps 759 mmHg 57%
    23:00 +7°C° 0 mm 3 mps 759 mmHg 59%
    Mostrar más